This demonstration page uses our WeatherBlox Daily Observations layout. Learn more.

Left ArrowRight Arrow

41.55636, -103.73856

Hourly Observations for December 14, 2018

Temp ( °F °C ) Dew Point ( °F °C ) Humidity (%) Winds ( mph kmh ) Pressure ( in mb ) Visibility ( mi km ) Precip ( " mm )
12:58 am 00:58 Clear 32 -0.1 13 -10.6 45 45 NW 20 31 30.36 1028 10 16 N/A
2:58 am 02:58 Clear 32 -0.1 12 -10.9 44 44 NW 18 30 30.32 1027 10 16 N/A
3:58 am 03:58 Clear 31 -0.6 13 -10.8 46 46 NW 18 30 30.36 1028 10 16 N/A
4:58 am 04:58 Clear 31 -0.6 12 -11 46 46 NW 20 31 30.37 1029 10 16 N/A
5:58 am 05:58 Clear 30 -1.2 13 -10.8 48 48 NNW 18 30 30.39 1029 10 16 N/A
6:59 am 06:59 Clear 29 -1.7 13 -10.7 51 51 NW 17 28 30.40 1030 10 16 N/A
7:58 am 07:58 Sunny 29 -1.4 13 -10.6 50 50 NW 16 26 30.40 1029 10 16 N/A
8:58 am 08:58 Sunny 35 1.8 13 -10.6 40 40 NW 17 28 30.38 1029 10 16 N/A
9:58 am 09:58 Sunny 41 4.8 14 -10.1 33 33 NW 18 30 30.38 1029 10 16 N/A
10:58 am 10:58 Sunny 45 7 15 -9.2 31 31 NW 17 28 30.33 1027 10 16 N/A
11:56 am 11:56 Sunny 47 8.4 16 -9.1 28 28 WNW 16 26 30.30 1026 10 16 N/A
12:58 pm 12:58 Sunny 47 8.4 17 -8.2 30 30 NNW 8 13 30.28 1025 10 16 N/A
1:56 pm 13:56 Sunny 48 8.9 16 -8.9 28 28 Calm 30.26 1025 10 16 N/A
2:56 pm 14:56 Sunny 49 9.3 18 -7.7 30 30 NNW 6 9 30.27 1025 10 16 N/A
3:56 pm 15:56 Sunny 46 7.6 17 -8.3 32 32 Calm 30.26 1025 10 16 N/A
4:58 pm 16:58 Clear 37 2.5 11 -11.9 34 34 WSW 9 15 30.29 1026 10 16 N/A
5:58 pm 17:58 Clear 35 1.8 11 -11.4 37 37 WSW 10 17 30.30 1026 10 16 N/A
6:58 pm 18:58 Clear 32 0.1 12 -11 43 43 WSW 9 15 30.29 1026 10 16 N/A
7:58 pm 19:58 Clear 29 -1.8 15 -9.7 55 55 WSW 9 15 30.27 1025 10 16 N/A
8:58 pm 20:58 Clear 28 -2.2 14 -9.9 56 56 WSW 10 17 30.24 1024 10 16 N/A
9:58 pm 21:58 Clear 29 -1.5 15 -9.6 54 54 WSW 9 15 30.20 1023 10 16 N/A
10:58 pm 22:58 Clear 28 -2.1 15 -9.4 58 58 SW 10 17 30.15 1021 10 16 N/A
11:58 pm 23:58 Clear 28 -2.1 15 -9.6 57 57 WSW 7 11 30.13 1020 10 16 N/A

Powered by AerisWeather